ONEWEB-0667 (55827 NORAD) Tracking and Keplerian Element Data

This shows tracking and keplerian element data for the satellite.

Feedback or suggestion? Click here.




ElementValue
Catalog55827
NameONEWEB-0667
Epoch Orbit938
Epoch Day127.09071102
Epoch Year2023
RAAN173.453
Inclination86.5071
Eccentricity0.0001675
Argument of Perigee94.1253
Mean Anonmoly266.0167
Mean Motion14.9323298
Decay Rate5.247E-05
L11 55827U 23029AH 23127.09071102 .00005247 00000+0 49950-3 0 9995
L22 55827 86.5071 173.4530 0001675 94.1253 266.0167 14.93232980 9381



Live tracking and technical data element details for ONEWEB-0667 (NORAD 55827). ONEWEB-0667 can be tracked NOW for your location showing map with azimuth and elevation plus other details from your city location.







IsCatalogInMostPopularTable: catalog: 55827, numindb: 7
Update: records affected: 1



GetName: 55827 ONEWEB-0667

Hit Count: updated at: Tue, 06 Jun 2023 01:57:27 GMT